[[{"header":{"parameterUnit":"m.s-1","parameterCategory":1,"la1":30.2991,"la2":30.254,"lo1":-89.0895,"lo2":-89.0444,"dy":0.0017,"dx":0.0017,"nx":28,"ny":28,"refTime":"2024-06-16T03:00:00:Z","depth":0,"parameterNumber":2,"parameterNumberName":"U-component_of_WINDS"},"data":[0,0,0,0,0,0,0,0,0,0,0,0,0,0,0,0,0,0,0,0,0,0,0,0,0,0,0,0,0,0,0,0,0,0,0,0,0,0,0,0,0,0,0,0,0,0,0,0,0,0,0,0,0,0,0,0,0,0,-4.2921,-4.2922,0,-4.3024,-4.3026,-4.3027,-4.2979,-4.2977,-4.2974,-4.2972,-4.3079,-4.3084,-4.3089,0,0,0,0,0,0,0,0,0,0,0,0,0,-4.2683,-4.2687,-4.2921,-4.2922,-4.2923,-4.3024,-4.3026,-4.3027,-4.298,-4.2976,-4.2973,-4.297,-4.3077,-4.3083,-4.3089,0,0,0,0,0,0,0,0,0,0,0,0,0,-4.2786,-4.2689,-4.292,-4.2912,-4.2912,-4.3024,-4.3026,-4.3027,-4.298,-4.2976,-4.2973,-4.2969,-4.3075,-4.3082,-4.309,-4.3217,0,0,-4.3114,-4.3118,0,0,0,0,0,0,0,0,-4.2781,-4.2795,-4.2912,-4.2913,-4.2913,-4.2985,-4.2981,-4.3091,-4.2981,-4.2954,-4.2971,-4.2967,-4.3051,-4.306,-4.3088,-4.3222,-4.3227,-4.3115,-4.312,-4.3123,-4.3125,0,0,0,0,0,0,0,-4.2773,-4.279,-4.2962,-4.2914,-4.2914,-4.2903,-4.2913,-4.3002,-4.3023,-4.2956,-4.2953,-4.2966,-4.305,-4.3081,-4.309,-4.3228,-4.3115,-4.3122,-4.3127,-4.313,-4.3471,-4.3475,0,0,0,0,0,0,-4.2766,-4.2785,-4.2958,-4.2965,-4.2836,-4.2911,-4.2922,-4.2966,-4.3022,-4.3027,-4.2969,-4.2964,-4.3069,-4.3081,-4.3094,-4.3246,-4.3123,-4.3131,-4.3135,-4.3467,-4.3472,-4.3477,0,0,0,0,0,0,-4.2761,-4.2782,-4.2954,-4.2874,-4.2895,-4.2919,-4.2968,-4.297,-4.3,-4.3032,-4.3035,-4.2997,-4.3067,-4.3083,-4.3187,-4.3249,-4.3134,-4.3141,-4.3462,-4.3468,-4.3474,-4.355,0,0,0,0,0,0,-4.2755,-4.2781,-4.2829,-4.2875,-4.29,-4.3045,-4.2972,-4.2975,-4.3014,-4.3007,-4.3058,-4.3063,-4.3065,-4.3175,-4.3195,-4.3257,-4.3147,-4.3456,-4.3465,-4.3472,-4.3542,-4.3558,-4.3572,0,0,0,0,0,-4.2746,-4.2846,-4.2832,-4.2853,-4.296,-4.3049,-4.3063,-4.3062,-4.3019,-4.3068,-4.3088,-4.3061,-4.3239,-4.3186,-4.3208,-4.3274,-4.3452,-4.3462,-4.3472,-4.3535,-4.3555,-4.3572,0,0,0,0,0,0,-4.2807,-4.2852,-4.2836,-4.2954,-4.2998,-4.304,-4.3102,-4.3083,-4.314,-4.3132,-4.313,-4.3142,-4.3249,-4.3272,-4.3212,-4.3399,-4.3339,-4.3354,-4.338,-4.3399,-4.3414,-4.3406,-4.3154,0,0,0,0,0,-4.2834,-4.2901,-4.2938,-4.3038,-4.3061,-4.3078,-4.3117,-4.3113,-4.3158,-4.3176,-4.3204,-4.3249,-4.3315,-4.3359,-4.3421,-4.3546,-4.3556,-4.3602,-4.3617,-4.3629,-4.3641,-4.3709,-4.3729,-4.3509,-4.3508,-4.3508,0,0,-4.289,-4.2923,-4.2966,-4.3051,-4.3085,-4.3155,-4.3094,-4.3171,-4.3223,-4.3188,-4.3287,-4.331,-4.336,-4.3475,-4.3527,-4.3497,-4.3705,-4.3642,-4.3651,-4.3657,-4.3721,-4.3742,-4.376,-4.3515,-4.3514,-4.3513,0,0,-4.3028,-4.3061,-4.3148,-4.3183,-4.3234,-4.3245,-4.3266,-4.3311,-4.3325,-4.3424,-4.3399,-4.3462,-4.3576,-4.3613,-4.3646,-4.38,-4.3777,-4.382,-4.3898,-4.3964,-4.3981,-4.3997,-4.4051,-4.407,-4.3833,-4.3833,-4.3833,0,-4.3092,-4.3197,-4.3195,-4.3274,-4.3312,-4.3284,-4.3372,-4.3406,-4.3475,-4.3503,-4.3469,-4.3611,-4.3643,-4.3765,-4.3803,-4.3832,-4.3855,-4.3814,-4.3979,-4.3994,-4.4009,-4.406,-4.4081,-4.3838,-4.3837,-4.3837,-4.3836,0,-4.3272,-4.3345,-4.341,-4.3477,-4.3522,-4.3606,-4.3617,-4.3663,-4.3656,-4.367,-4.3772,-4.381,-4.3879,-4.3909,-4.3902,-4.4031,-4.4011,-4.3978,-4.3917,-4.4035,-4.4083,-4.4103,-4.3845,-4.3843,-4.3841,-4.384,0,0,-4.3451,-4.3516,-4.3539,-4.3569,-4.3624,-4.3681,-4.3764,-4.3831,-4.3871,-4.392,-4.3989,-4.4086,-4.4057,-4.4095,-4.4093,-4.415,-4.4269,-4.4111,-4.4112,-4.4138,-4.4412,-4.4435,-4.4458,-4.4255,-4.4258,-4.4262,-4.4407,0,-4.3592,-4.3736,-4.3737,-4.3869,-4.3936,-4.3911,-4.3983,-4.4024,-4.404,-4.41,-4.4118,-4.4187,-4.4143,-4.4165,-4.4222,-4.4242,-4.4324,-4.4232,-4.4318,-4.4321,-4.4305,-4.4483,-4.4508,-4.4644,-4.4426,-4.443,-4.4432,0,-4.3776,-4.3831,-4.397,-4.4015,-4.4043,-4.4108,-4.417,-4.4227,-4.4274,-4.4282,-4.4325,-4.4314,-4.4398,-4.4336,-4.4452,-4.439,-4.4425,-4.4441,-4.4447,-4.4453,-4.4383,-4.4494,-4.4687,-4.4707,-4.4462,-4.4459,-4.4457,0,-4.3891,-4.4,-4.4097,-4.4123,-4.4179,-4.4224,-4.425,-4.4293,-4.4333,-4.4388,-4.4414,-4.4479,-4.4513,-4.4564,-4.457,-4.4524,-4.4687,-4.4625,-4.4695,-4.4695,-4.473,-4.4727,-4.493,-4.4755,-4.4754,-4.4754,-4.4754,0,-4.4049,-4.4135,-4.4149,-4.4209,-4.4304,-4.4305,-4.44,-4.4421,-4.446,-4.4523,-4.4506,-4.4566,-4.4572,-4.4634,-4.464,-4.4735,-4.4751,-4.4759,-4.476,-4.476,-4.4759,-4.4783,-4.4773,-4.4759,-4.4758,-4.4757,-4.4756,0,-4.4193,-4.4206,-4.431,-4.4354,-4.4367,-4.4435,-4.4473,-4.453,-4.4544,-4.4625,-4.4644,-4.4667,-4.4739,-4.4751,-4.4836,-4.484,-4.4954,-4.4945,-4.4937,-4.4936,-4.5005,-4.4998,-4.5229,-4.526,-4.5065,-4.5067,-4.5069,0,-4.4292,-4.4357,-4.4408,-4.4449,-4.4476,-4.4543,-4.4584,-4.4588,-4.4632,-4.469,-4.474,-4.4811,-4.4867,-4.4984,-4.5008,-4.5073,-4.5065,-4.5142,-4.5075,-4.5073,-4.5065,-4.5061,-4.5067,-4.5154,-4.5157,-4.5158,-4.516,0,-4.4466,-4.4469,-4.4529,-4.4592,-4.4642,-4.4691,-4.4738,-4.4773,-4.4783,-4.4833,-4.4906,-4.495,-4.5037,-4.5107,-4.5172,-4.5198,-4.5181,-4.5181,-4.52,-4.5201,-4.5194,-4.5198,-4.4971,-4.5175,-4.5174,-4.5172,-4.5172,-4.5171,-4.459,-4.4647,-4.4691,-4.4759,-4.4794,-4.4838,-4.4894,-4.4915,-4.4976,-4.5047,-4.5046,-4.5126,-4.5172,-4.5257,-4.5288,-4.5351,-4.5326,-4.5355,-4.5362,-4.5369,-4.5375,-4.5185,-4.5363,-4.5363,-4.5362,-4.5362,-4.5362,0,-4.4763,-4.479,-4.4852,-4.4918,-4.4971,-4.495,-4.5001,-4.5047,-4.5118,-4.5162,-4.5217,-4.5302,-4.537,-4.54,-4.5467,-4.5511,-4.5505,-4.5529,-4.5525,-4.5531,-4.5393,-4.5369,-4.5533,-4.5533,-4.5533,-4.5533,-4.5533,-4.5533,-4.4859,-4.4953,-4.4962,-4.5074,-4.5101,-4.5179,-4.521,-4.5251,-4.5286,-4.538,-4.5436,-4.5455,-4.5494,-4.5564,-4.5625,-4.5632,-4.5657,-4.5685,-4.5688,-4.5558,-4.5541,-4.5524,-4.5502,-4.569,-4.569,-4.582,-4.5822,-4.5823]},{"header":{"parameterUnit":"m.s-1","parameterCategory":1,"la1":30.2991,"la2":30.254,"lo1":-89.0895,"lo2":-89.0444,"dy":0.0017,"dx":0.0017,"nx":28,"ny":28,"refTime":"2024-06-16T03:00:00:Z","depth":0,"parameterNumber":3,"parameterNumberName":"V-component_of_WINDS"},"data":[0,0,0,0,0,0,0,0,0,0,0,0,0,0,0,0,0,0,0,0,0,0,0,0,0,0,0,0,0,0,0,0,0,0,0,0,0,0,0,0,0,0,0,0,0,0,0,0,0,0,0,0,0,0,0,0,0,0,2.5269,2.527,0,2.5348,2.5349,2.535,2.534,2.5339,2.5338,2.5336,2.5416,2.5419,2.5423,0,0,0,0,0,0,0,0,0,0,0,0,0,2.511,2.5113,2.5269,2.527,2.5271,2.5348,2.5349,2.535,2.534,2.5339,2.5337,2.5336,2.5415,2.5419,2.5423,0,0,0,0,0,0,0,0,0,0,0,0,0,2.5183,2.5114,2.5268,2.5275,2.5277,2.5347,2.5349,2.535,2.5341,2.5339,2.5337,2.5335,2.5414,2.5418,2.5423,2.5492,0,0,2.5439,2.5441,0,0,0,0,0,0,0,0,2.5179,2.5189,2.5273,2.5275,2.5277,2.5332,2.5322,2.5398,2.5341,2.5316,2.5336,2.5334,2.539,2.5396,2.5415,2.5496,2.5499,2.5439,2.5442,2.5444,2.5445,0,0,0,0,0,0,0,2.5174,2.5185,2.53,2.5275,2.5277,2.5274,2.5283,2.5336,2.5363,2.5318,2.5318,2.5327,2.539,2.5411,2.5417,2.55,2.5439,2.5443,2.5446,2.5448,2.5644,2.5646,0,0,0,0,0,0,2.5167,2.5181,2.5297,2.5302,2.5222,2.5279,2.5288,2.5316,2.5362,2.5367,2.5329,2.5327,2.5403,2.5411,2.542,2.5505,2.5444,2.5449,2.5452,2.5642,2.5644,2.5647,0,0,0,0,0,0,2.5164,2.5177,2.5294,2.5242,2.5256,2.5284,2.5315,2.5319,2.5339,2.537,2.5375,2.5345,2.5402,2.5413,2.5475,2.5507,2.5451,2.5455,2.5639,2.5642,2.5645,2.5674,0,0,0,0,0,0,2.5159,2.5176,2.5202,2.5242,2.5259,2.5348,2.5317,2.5322,2.5348,2.5346,2.5386,2.5391,2.5401,2.5468,2.548,2.5513,2.5459,2.5636,2.564,2.5644,2.5671,2.5678,2.5685,0,0,0,0,0,2.5153,2.5206,2.5204,2.5218,2.5292,2.5349,2.5359,2.537,2.5351,2.5377,2.5398,2.539,2.5502,2.5474,2.5488,2.5523,2.5634,2.5639,2.5644,2.5667,2.5677,2.5685,0,0,0,0,0,0,2.5168,2.5212,2.5209,2.5277,2.531,2.5348,2.5382,2.5379,2.5418,2.5414,2.5426,2.5435,2.5498,2.5517,2.5484,2.5593,2.5565,2.5573,2.5579,2.5588,2.5595,2.5589,2.5463,0,0,0,0,0,2.518,2.5223,2.5258,2.5314,2.5331,2.5354,2.5379,2.5385,2.5419,2.5433,2.5457,2.5491,2.5534,2.5562,2.5603,2.5674,2.5683,2.5705,2.5712,2.5718,2.5725,2.5765,2.5776,2.5663,2.5663,2.5663,0,0,2.5203,2.5232,2.5258,2.5318,2.5344,2.5389,2.5365,2.5413,2.5446,2.544,2.55,2.552,2.5558,2.5625,2.5656,2.5643,2.5758,2.5724,2.5728,2.5732,2.5772,2.5782,2.5792,2.5666,2.5666,2.5665,0,0,2.5269,2.5295,2.5346,2.5373,2.5413,2.5429,2.5441,2.548,2.5493,2.5554,2.5551,2.5591,2.5664,2.5693,2.5716,2.5796,2.5791,2.5809,2.5846,2.5886,2.5895,2.5903,2.5933,2.5943,2.5816,2.5816,2.5816,0,2.5293,2.536,2.5372,2.5421,2.5448,2.5445,2.5497,2.5523,2.5575,2.5594,2.5578,2.5672,2.5698,2.5772,2.5792,2.5811,2.5826,2.5804,2.5893,2.5901,2.5908,2.5937,2.5948,2.5818,2.5818,2.5817,2.5817,0,2.5388,2.5435,2.5471,2.5523,2.5554,2.5604,2.5624,2.5654,2.5658,2.5675,2.5738,2.5769,2.5817,2.5835,2.5839,2.5912,2.5903,2.589,2.5862,2.5921,2.5948,2.5959,2.5821,2.582,2.5819,2.5819,0,0,2.5464,2.5523,2.5536,2.556,2.5606,2.5643,2.5694,2.5742,2.5768,2.5805,2.5848,2.5912,2.5901,2.5928,2.5935,2.597,2.6034,2.5954,2.5955,2.5968,2.6117,2.6127,2.6139,2.6031,2.6033,2.6035,2.6115,0,2.5535,2.5625,2.5638,2.5718,2.5762,2.5762,2.5806,2.584,2.5858,2.5898,2.5918,2.5963,2.5945,2.5962,2.5996,2.6018,2.6064,2.6013,2.6072,2.6074,2.6063,2.6153,2.6163,2.6237,2.6125,2.6127,2.6128,0,2.5629,2.567,2.5754,2.5796,2.5815,2.5855,2.5902,2.594,2.5979,2.5989,2.6021,2.6025,2.6078,2.6049,2.6124,2.6089,2.6114,2.6129,2.6132,2.6138,2.6105,2.6162,2.6261,2.6272,2.6145,2.6143,2.6142,0,2.5677,2.5753,2.5814,2.5834,2.5885,2.5913,2.5935,2.5972,2.6001,2.6042,2.6061,2.6107,2.6133,2.6169,2.6185,2.6162,2.626,2.6231,2.6271,2.6271,2.6291,2.629,2.6395,2.6307,2.6307,2.6306,2.6306,0,2.5755,2.5807,2.5837,2.5874,2.5933,2.5948,2.6006,2.6027,2.6061,2.6103,2.6105,2.6145,2.6164,2.6207,2.622,2.6281,2.6292,2.6303,2.6306,2.6303,2.6302,2.632,2.6315,2.6309,2.6309,2.6308,2.6308,0,2.5819,2.584,2.5907,2.595,2.5962,2.6004,2.6041,2.6078,2.6096,2.615,2.6163,2.6192,2.6243,2.6263,2.6325,2.6334,2.6405,2.6403,2.6392,2.6393,2.6432,2.6429,2.6553,2.6571,2.647,2.6471,2.6472,0,2.5867,2.5908,2.5956,2.5985,2.6008,2.6054,2.6084,2.6102,2.6133,2.6182,2.6213,2.6264,2.6306,2.6387,2.6414,2.6462,2.6462,2.6503,2.6469,2.6466,2.6464,2.6462,2.6467,2.6509,2.651,2.6511,2.6511,0,2.5952,2.5961,2.6004,2.6053,2.6089,2.6128,2.6165,2.6189,2.6212,2.6247,2.63,2.6332,2.6397,2.6448,2.6498,2.6521,2.6521,2.6522,2.6534,2.6532,2.6524,2.653,2.641,2.6519,2.6518,2.6518,2.6517,2.6517,2.601,2.6047,2.6087,2.6136,2.6166,2.6202,2.624,2.6264,2.6308,2.6362,2.637,2.6426,2.6466,2.6533,2.6559,2.6605,2.6594,2.6611,2.6615,2.6619,2.6623,2.6517,2.6613,2.6613,2.6613,2.6613,2.6613,0,2.6095,2.6122,2.6167,2.622,2.626,2.6256,2.6299,2.6332,2.6382,2.6419,2.6461,2.6522,2.6573,2.6604,2.6655,2.6686,2.6687,2.6699,2.6697,2.6703,2.6629,2.6614,2.6697,2.6697,2.6697,2.6697,2.6697,2.6697,2.6145,2.6207,2.6222,2.63,2.6326,2.6382,2.6407,2.644,2.647,2.6539,2.6581,2.6602,2.6638,2.6692,2.6739,2.6747,2.6766,2.6779,2.6786,2.6716,2.6707,2.6699,2.6685,2.6782,2.6782,2.6856,2.6857,2.6858]}]]